Location: Marsån
(66.4167°N, 22.2833°E)
Time: 11:32:35
(UTC+00:00)

Cosmos 1862 - Pass Details

Date: 24 February 2024
Orbit: 514 x 528 km, 82.5° (Epoch: 15 April)

Event Time Altitude Azimuth Distance (km) Brightness Sun altitude
Rises 18:07:33 0° 198° (SSW) 2,642 6.8 -16.9°
Reaches altitude 10° 18:09:41 10° 200° (SSW) 1,755 5.9 -17.1°
Maximum altitude 18:13:33 84° 290° (WNW) 530 3.2 -17.5°
Drops below altitude 10° 18:17:25 10° 18° (NNE) 1,760 5.9 -17.9°
Sets 18:19:33 0° 19° (NNE) 2,651 6.8 -18.1°
